Data supplied by UK-AIR on 17/3/2021
All Data GMT hour ending 
Status: R =Ratified P=Provisional,P*=As supplied
,,Bury Whitefield Roadside,,,,,,,,,,,,,,,,,,,,,,,
Date,time,"PM<sub>10</sub> particulate matter (Hourly measured)",status,unit,"Nitric oxide",status,unit,"Nitrogen dioxide",status,unit,"Nitrogen oxides as nitrogen dioxide",status,unit
 
01-01-2020,01:00,36.716,R,ugm-3 (Ref.eq),0.49686,R,ugm-3,11.64558,R,ugm-3,12.40742,R,ugm-3
01-01-2020,02:00,24.155,R,ugm-3 (Ref.eq),0.63237,R,ugm-3,16.56713,R,ugm-3,17.53675,R,ugm-3
01-01-2020,03:00,22.223,R,ugm-3 (Ref.eq),0.60978,R,ugm-3,15.85662,R,ugm-3,16.79161,R,ugm-3
01-01-2020,04:00,17.392,R,ugm-3 (Ref.eq),0.88080,R,ugm-3,11.23018,R,ugm-3,12.58071,R,ugm-3
01-01-2020,05:00,15.459,R,ugm-3 (Ref.eq),1.96485,R,ugm-3,13.83087,R,ugm-3,16.84360,R,ugm-3
01-01-2020,06:00,24.155,R,ugm-3 (Ref.eq),2.98116,R,ugm-3,21.00627,R,ugm-3,25.57731,R,ugm-3
01-01-2020,07:00,23.189,R,ugm-3 (Ref.eq),2.77789,R,ugm-3,24.33315,R,ugm-3,28.59252,R,ugm-3
01-01-2020,08:00,24.155,R,ugm-3 (Ref.eq),1.15181,R,ugm-3,17.52087,R,ugm-3,19.28696,R,ugm-3
01-01-2020,09:00,28.020,R,ugm-3 (Ref.eq),3.04891,R,ugm-3,29.16822,R,ugm-3,33.84315,R,ugm-3
01-01-2020,10:00,27.054,R,ugm-3 (Ref.eq),3.52318,R,ugm-3,26.82943,R,ugm-3,32.23157,R,ugm-3
01-01-2020,11:00,28.020,R,ugm-3 (Ref.eq),6.97861,R,ugm-3,24.13050,R,ugm-3,34.83089,R,ugm-3
01-01-2020,12:00,32.851,R,ugm-3 (Ref.eq),11.07770,R,ugm-3,26.42308,R,ugm-3,43.40865,R,ugm-3
01-01-2020,13:00,28.020,R,ugm-3 (Ref.eq),9.45162,R,ugm-3,24.49753,R,ugm-3,38.98981,R,ugm-3
01-01-2020,14:00,29.952,R,ugm-3 (Ref.eq),5.55579,R,ugm-3,20.74959,R,ugm-3,29.26835,R,ugm-3
01-01-2020,15:00,28.986,R,ugm-3 (Ref.eq),12.46665,R,ugm-3,31.36354,R,ugm-3,50.47880,R,ugm-3
01-01-2020,16:00,34.783,R,ugm-3 (Ref.eq),8.06267,R,ugm-3,30.83812,R,ugm-3,43.20071,R,ugm-3
01-01-2020,17:00,36.716,R,ugm-3 (Ref.eq),7.08024,R,ugm-3,35.41168,R,ugm-3,46.26790,R,ugm-3
01-01-2020,18:00,37.682,R,ugm-3 (Ref.eq),7.92716,R,ugm-3,41.59913,R,ugm-3,53.75395,R,ugm-3
01-01-2020,19:00,38.648,R,ugm-3 (Ref.eq),10.33241,R,ugm-3,41.08230,R,ugm-3,56.92512,R,ugm-3
01-01-2020,20:00,37.682,R,ugm-3 (Ref.eq),7.21575,R,ugm-3,33.12445,R,ugm-3,44.18845,R,ugm-3
01-01-2020,21:00,32.851,R,ugm-3 (Ref.eq),4.37010,R,ugm-3,30.05366,R,ugm-3,36.75439,R,ugm-3
01-01-2020,22:00,34.783,R,ugm-3 (Ref.eq),6.43658,R,ugm-3,28.60065,R,ugm-3,38.46994,R,ugm-3
01-01-2020,23:00,23.189,R,ugm-3 (Ref.eq),1.96485,R,ugm-3,17.72985,R,ugm-3,20.74258,R,ugm-3
01-01-2020,24:00,21.256,R,ugm-3 (Ref.eq),1.38895,R,ugm-3,14.55795,R,ugm-3,16.68764,R,ugm-3
02-01-2020,01:00,11.594,R,ugm-3 (Ref.eq),1.21949,R,ugm-3,11.56150,R,ugm-3,13.43137,R,ugm-3
02-01-2020,02:00,11.594,R,ugm-3 (Ref.eq),0.76783,R,ugm-3,8.44619,R,ugm-3,9.62351,R,ugm-3
02-01-2020,03:00,20.290,R,ugm-3 (Ref.eq),0.33875,R,ugm-3,6.95785,R,ugm-3,7.47726,R,ugm-3
02-01-2020,04:00,17.392,R,ugm-3 (Ref.eq),0.54200,R,ugm-3,6.38658,R,ugm-3,7.21763,R,ugm-3
02-01-2020,05:00,16.425,R,ugm-3 (Ref.eq),0.50812,R,ugm-3,7.16548,R,ugm-3,7.94459,R,ugm-3
02-01-2020,06:00,11.594,R,ugm-3 (Ref.eq),1.21949,R,ugm-3,10.22875,R,ugm-3,12.09862,R,ugm-3
02-01-2020,07:00,10.628,R,ugm-3 (Ref.eq),2.60836,R,ugm-3,17.28998,R,ugm-3,21.28942,R,ugm-3
02-01-2020,08:00,15.459,R,ugm-3 (Ref.eq),4.53923,R,ugm-3,25.49332,R,ugm-3,32.45338,R,ugm-3
02-01-2020,09:00,22.223,R,ugm-3 (Ref.eq),6.13135,R,ugm-3,29.85434,R,ugm-3,39.25560,R,ugm-3
02-01-2020,10:00,17.392,R,ugm-3 (Ref.eq),6.26685,R,ugm-3,25.02521,R,ugm-3,34.63424,R,ugm-3
02-01-2020,11:00,14.493,R,ugm-3 (Ref.eq),11.14482,R,ugm-3,27.30773,R,ugm-3,44.39622,R,ugm-3
02-01-2020,12:00,16.425,R,ugm-3 (Ref.eq),8.12996,R,ugm-3,25.49170,R,ugm-3,37.95747,R,ugm-3
02-01-2020,13:00,4.831,R,ugm-3 (Ref.eq),5.89422,R,ugm-3,21.65023,R,ugm-3,30.68791,R,ugm-3
02-01-2020,14:00,15.459,R,ugm-3 (Ref.eq),3.52298,R,ugm-3,22.89751,R,ugm-3,28.29934,R,ugm-3
02-01-2020,15:00,14.493,R,ugm-3 (Ref.eq),6.91047,R,ugm-3,27.10194,R,ugm-3,37.69784,R,ugm-3
02-01-2020,16:00,7.730,R,ugm-3 (Ref.eq),8.50259,R,ugm-3,34.57847,R,ugm-3,47.61559,R,ugm-3
02-01-2020,17:00,10.628,R,ugm-3 (Ref.eq),15.61631,R,ugm-3,39.61203,R,ugm-3,63.55669,R,ugm-3
02-01-2020,18:00,7.730,R,ugm-3 (Ref.eq),16.12443,R,ugm-3,38.46944,R,ugm-3,63.19321,R,ugm-3
02-01-2020,19:00,14.493,R,ugm-3 (Ref.eq),15.85343,R,ugm-3,43.03899,R,ugm-3,67.34724,R,ugm-3
02-01-2020,20:00,10.628,R,ugm-3 (Ref.eq),11.78845,R,ugm-3,35.14817,R,ugm-3,53.22354,R,ugm-3
02-01-2020,21:00,6.763,R,ugm-3 (Ref.eq),11.99170,R,ugm-3,36.80969,R,ugm-3,55.19670,R,ugm-3
02-01-2020,22:00,5.797,R,ugm-3 (Ref.eq),8.26546,R,ugm-3,29.69760,R,ugm-3,42.37113,R,ugm-3
02-01-2020,23:00,6.763,R,ugm-3 (Ref.eq),2.67611,R,ugm-3,14.64175,R,ugm-3,18.74507,R,ugm-3
02-01-2020,24:00,5.797,R,ugm-3 (Ref.eq),4.36986,R,ugm-3,16.51030,R,ugm-3,23.21066,R,ugm-3
03-01-2020,01:00,3.865,R,ugm-3 (Ref.eq),4.51639,R,ugm-3,13.06004,R,ugm-3,19.98508,R,ugm-3
03-01-2020,02:00,13.527,R,ugm-3 (Ref.eq),1.44525,R,ugm-3,10.78466,R,ugm-3,13.00067,R,ugm-3
03-01-2020,03:00,7.730,R,ugm-3 (Ref.eq),1.25330,R,ugm-3,8.81423,R,ugm-3,10.73593,R,ugm-3
03-01-2020,04:00,4.831,R,ugm-3 (Ref.eq),0.64359,R,ugm-3,5.85928,R,ugm-3,6.84610,R,ugm-3
03-01-2020,05:00,8.696,R,ugm-3 (Ref.eq),1.62590,R,ugm-3,4.45682,R,ugm-3,6.94983,R,ugm-3
03-01-2020,06:00,12.561,R,ugm-3 (Ref.eq),3.72602,R,ugm-3,11.66142,R,ugm-3,17.37457,R,ugm-3
03-01-2020,07:00,14.493,R,ugm-3 (Ref.eq),15.88640,R,ugm-3,30.35812,R,ugm-3,54.71694,R,ugm-3
03-01-2020,08:00,19.324,R,ugm-3 (Ref.eq),15.85253,R,ugm-3,34.40362,R,ugm-3,58.71049,R,ugm-3
03-01-2020,09:00,21.256,R,ugm-3 (Ref.eq),47.01563,R,ugm-3,56.74153,R,ugm-3,128.83115,R,ugm-3
03-01-2020,10:00,20.290,R,ugm-3 (Ref.eq),17.68167,R,ugm-3,37.92644,R,ugm-3,65.03795,R,ugm-3
03-01-2020,11:00,18.358,R,ugm-3 (Ref.eq),12.83784,R,ugm-3,28.03083,R,ugm-3,47.71524,R,ugm-3
03-01-2020,12:00,17.392,R,ugm-3 (Ref.eq),10.80547,R,ugm-3,21.03354,R,ugm-3,37.60169,R,ugm-3
03-01-2020,13:00,24.155,R,ugm-3 (Ref.eq),7.58754,R,ugm-3,17.87678,R,ugm-3,29.51084,R,ugm-3
03-01-2020,14:00,18.358,R,ugm-3 (Ref.eq),10.29737,R,ugm-3,22.27938,R,ugm-3,38.06847,R,ugm-3
03-01-2020,15:00,22.223,R,ugm-3 (Ref.eq),7.96014,R,ugm-3,17.09801,R,ugm-3,29.30338,R,ugm-3
03-01-2020,16:00,17.392,R,ugm-3 (Ref.eq),9.21344,R,ugm-3,19.11800,R,ugm-3,33.24508,R,ugm-3
03-01-2020,17:00,20.290,R,ugm-3 (Ref.eq),11.68616,R,ugm-3,30.36722,R,ugm-3,48.28575,R,ugm-3
03-01-2020,18:00,21.256,R,ugm-3 (Ref.eq),12.63460,R,ugm-3,30.78008,R,ugm-3,50.15287,R,ugm-3
03-01-2020,19:00,26.087,R,ugm-3 (Ref.eq),10.12801,R,ugm-3,28.71094,R,ugm-3,44.24033,R,ugm-3
03-01-2020,20:00,20.290,R,ugm-3 (Ref.eq),5.65678,R,ugm-3,19.07384,R,ugm-3,27.74745,R,ugm-3
03-01-2020,21:00,21.256,R,ugm-3 (Ref.eq),2.94695,R,ugm-3,16.53836,R,ugm-3,21.05694,R,ugm-3
03-01-2020,22:00,24.155,R,ugm-3 (Ref.eq),7.01170,R,ugm-3,28.35464,R,ugm-3,39.10575,R,ugm-3
03-01-2020,23:00,19.324,R,ugm-3 (Ref.eq),6.13100,R,ugm-3,24.41485,R,ugm-3,33.81559,R,ugm-3
03-01-2020,24:00,13.527,R,ugm-3 (Ref.eq),3.45504,R,ugm-3,19.13048,R,ugm-3,24.42813,R,ugm-3
04-01-2020,01:00,18.358,R,ugm-3 (Ref.eq),1.26452,R,ugm-3,8.97435,R,ugm-3,10.91325,R,ugm-3
04-01-2020,02:00,19.324,R,ugm-3 (Ref.eq),1.17420,R,ugm-3,5.17578,R,ugm-3,6.97619,R,ugm-3
04-01-2020,03:00,16.425,R,ugm-3 (Ref.eq),0.47420,R,ugm-3,4.76407,R,ugm-3,5.49116,R,ugm-3
04-01-2020,04:00,20.290,R,ugm-3 (Ref.eq),0.81290,R,ugm-3,5.22899,R,ugm-3,6.47542,R,ugm-3
04-01-2020,05:00,13.527,R,ugm-3 (Ref.eq),0.84678,R,ugm-3,3.93377,R,ugm-3,5.23214,R,ugm-3
04-01-2020,06:00,11.594,R,ugm-3 (Ref.eq),0.98226,R,ugm-3,4.50308,R,ugm-3,6.00919,R,ugm-3
04-01-2020,07:00,15.459,R,ugm-3 (Ref.eq),0.91452,R,ugm-3,4.03712,R,ugm-3,5.43936,R,ugm-3
04-01-2020,08:00,8.696,R,ugm-3 (Ref.eq),1.86291,R,ugm-3,5.95016,R,ugm-3,8.80658,R,ugm-3
04-01-2020,09:00,11.594,R,ugm-3 (Ref.eq),3.04839,R,ugm-3,7.75868,R,ugm-3,12.43281,R,ugm-3
04-01-2020,10:00,14.493,R,ugm-3 (Ref.eq),7.62098,R,ugm-3,14.21636,R,ugm-3,25.90169,R,ugm-3
04-01-2020,11:00,10.628,R,ugm-3 (Ref.eq),6.67259,R,ugm-3,16.13676,R,ugm-3,26.36792,R,ugm-3
04-01-2020,12:00,8.696,R,ugm-3 (Ref.eq),6.94356,R,ugm-3,15.30686,R,ugm-3,25.95350,R,ugm-3
04-01-2020,13:00,11.594,R,ugm-3 (Ref.eq),10.43227,R,ugm-3,19.95562,R,ugm-3,35.95155,R,ugm-3
04-01-2020,14:00,10.628,R,ugm-3 (Ref.eq),6.97743,R,ugm-3,16.60181,R,ugm-3,27.30039,R,ugm-3
04-01-2020,15:00,11.594,R,ugm-3 (Ref.eq),8.87421,R,ugm-3,20.73872,R,ugm-3,34.34565,R,ugm-3
04-01-2020,16:00,14.493,R,ugm-3 (Ref.eq),12.09195,R,ugm-3,27.20166,R,ugm-3,45.74239,R,ugm-3
04-01-2020,17:00,11.594,R,ugm-3 (Ref.eq),6.94356,R,ugm-3,19.55474,R,ugm-3,30.20138,R,ugm-3
04-01-2020,18:00,13.527,R,ugm-3 (Ref.eq),10.33066,R,ugm-3,28.81440,R,ugm-3,44.65452,R,ugm-3
04-01-2020,19:00,16.425,R,ugm-3 (Ref.eq),18.76454,R,ugm-3,45.98039,R,ugm-3,74.75229,R,ugm-3
04-01-2020,20:00,18.358,R,ugm-3 (Ref.eq),14.22583,R,ugm-3,44.75472,R,ugm-3,66.56735,R,ugm-3
04-01-2020,21:00,21.256,R,ugm-3 (Ref.eq),10.80485,R,ugm-3,43.21390,R,ugm-3,59.78111,R,ugm-3
04-01-2020,22:00,16.425,R,ugm-3 (Ref.eq),10.73711,R,ugm-3,47.72106,R,ugm-3,64.18440,R,ugm-3
04-01-2020,23:00,14.493,R,ugm-3 (Ref.eq),8.40001,R,ugm-3,42.60159,R,ugm-3,55.48143,R,ugm-3
04-01-2020,24:00,10.628,R,ugm-3 (Ref.eq),9.89034,R,ugm-3,31.04365,R,ugm-3,46.20862,R,ugm-3
05-01-2020,01:00,13.527,R,ugm-3 (Ref.eq),6.32223,R,ugm-3,27.07763,R,ugm-3,36.77159,R,ugm-3
05-01-2020,02:00,11.594,R,ugm-3 (Ref.eq),2.75469,R,ugm-3,24.88992,R,ugm-3,29.11371,R,ugm-3
05-01-2020,03:00,11.594,R,ugm-3 (Ref.eq),1.55798,R,ugm-3,17.22149,R,ugm-3,19.61036,R,ugm-3
05-01-2020,04:00,8.696,R,ugm-3 (Ref.eq),1.45637,R,ugm-3,9.35722,R,ugm-3,11.59029,R,ugm-3
05-01-2020,05:00,6.763,R,ugm-3 (Ref.eq),2.06602,R,ugm-3,9.66426,R,ugm-3,12.83211,R,ugm-3
05-01-2020,06:00,8.696,R,ugm-3 (Ref.eq),2.26923,R,ugm-3,13.38858,R,ugm-3,16.86802,R,ugm-3
05-01-2020,07:00,8.696,R,ugm-3 (Ref.eq),1.59185,R,ugm-3,12.30578,R,ugm-3,14.74658,R,ugm-3
05-01-2020,08:00,8.696,R,ugm-3 (Ref.eq),3.08209,R,ugm-3,13.48752,R,ugm-3,18.21332,R,ugm-3
05-01-2020,09:00,6.763,R,ugm-3 (Ref.eq),8.06085,R,ugm-3,28.67192,R,ugm-3,41.03171,R,ugm-3
05-01-2020,10:00,4.831,R,ugm-3 (Ref.eq),13.88633,R,ugm-3,31.32993,R,ugm-3,52.62200,R,ugm-3
05-01-2020,11:00,6.763,R,ugm-3 (Ref.eq),19.23765,R,ugm-3,37.19862,R,ugm-3,66.69593,R,ugm-3
05-01-2020,12:00,9.662,R,ugm-3 (Ref.eq),17.57806,R,ugm-3,38.13926,R,ugm-3,65.09192,R,ugm-3
05-01-2020,13:00,8.696,R,ugm-3 (Ref.eq),20.76176,R,ugm-3,38.43190,R,ugm-3,70.26615,R,ugm-3
05-01-2020,14:00,9.662,R,ugm-3 (Ref.eq),17.88288,R,ugm-3,43.72573,R,ugm-3,71.14577,R,ugm-3
05-01-2020,15:00,10.628,R,ugm-3 (Ref.eq),24.82605,R,ugm-3,50.36165,R,ugm-3,88.42773,R,ugm-3
05-01-2020,16:00,13.527,R,ugm-3 (Ref.eq),13.64925,R,ugm-3,39.04087,R,ugm-3,59.96942,R,ugm-3
05-01-2020,17:00,7.730,R,ugm-3 (Ref.eq),12.53157,R,ugm-3,36.46000,R,ugm-3,55.67480,R,ugm-3
05-01-2020,18:00,6.763,R,ugm-3 (Ref.eq),14.90240,R,ugm-3,45.03597,R,ugm-3,67.88600,R,ugm-3
05-01-2020,19:00,12.561,R,ugm-3 (Ref.eq),18.96670,R,ugm-3,56.55178,R,ugm-3,85.63364,R,ugm-3
05-01-2020,20:00,9.662,R,ugm-3 (Ref.eq),3.65786,R,ugm-3,33.19814,R,ugm-3,38.80679,R,ugm-3
05-01-2020,21:00,8.696,R,ugm-3 (Ref.eq),1.59185,R,ugm-3,18.77358,R,ugm-3,21.21438,R,ugm-3
05-01-2020,22:00,9.662,R,ugm-3 (Ref.eq),0.77899,R,ugm-3,12.93124,R,ugm-3,14.12567,R,ugm-3
05-01-2020,23:00,8.696,R,ugm-3 (Ref.eq),1.89667,R,ugm-3,10.80354,R,ugm-3,13.71173,R,ugm-3
05-01-2020,24:00,6.763,R,ugm-3 (Ref.eq),1.52411,R,ugm-3,10.80563,R,ugm-3,13.14256,R,ugm-3
06-01-2020,01:00,4.831,R,ugm-3 (Ref.eq),1.44500,R,ugm-3,7.91391,R,ugm-3,10.12955,R,ugm-3
06-01-2020,02:00,3.865,R,ugm-3 (Ref.eq),0.76766,R,ugm-3,5.64489,R,ugm-3,6.82194,R,ugm-3
06-01-2020,03:00,5.797,R,ugm-3 (Ref.eq),0.57574,R,ugm-3,4.18198,R,ugm-3,5.06477,R,ugm-3
06-01-2020,04:00,8.696,R,ugm-3 (Ref.eq),0.47414,R,ugm-3,4.28609,R,ugm-3,5.01309,R,ugm-3
06-01-2020,05:00,6.763,R,ugm-3 (Ref.eq),1.72723,R,ugm-3,6.75763,R,ugm-3,9.40601,R,ugm-3
06-01-2020,06:00,6.763,R,ugm-3 (Ref.eq),3.38672,R,ugm-3,17.85700,R,ugm-3,23.04989,R,ugm-3
06-01-2020,07:00,8.696,R,ugm-3 (Ref.eq),8.56840,R,ugm-3,27.32849,R,ugm-3,40.46652,R,ugm-3
06-01-2020,08:00,11.594,R,ugm-3 (Ref.eq),10.56656,R,ugm-3,34.96273,R,ugm-3,51.16456,R,ugm-3
06-01-2020,09:00,12.561,R,ugm-3 (Ref.eq),5.75742,R,ugm-3,24.66161,R,ugm-3,33.48953,R,ugm-3
06-01-2020,10:00,13.527,R,ugm-3 (Ref.eq),7.07824,R,ugm-3,27.59779,R,ugm-3,38.45094,R,ugm-3
06-01-2020,11:00,11.594,R,ugm-3 (Ref.eq),10.36336,R,ugm-3,31.70829,R,ugm-3,47.59855,R,ugm-3
06-01-2020,12:00,16.425,R,ugm-3 (Ref.eq),6.09609,R,ugm-3,20.67967,R,ugm-3,30.02688,R,ugm-3
06-01-2020,13:00,16.425,R,ugm-3 (Ref.eq),3.99633,R,ugm-3,20.53997,R,ugm-3,26.66759,R,ugm-3
06-01-2020,14:00,16.425,R,ugm-3 (Ref.eq),6.50250,R,ugm-3,24.91457,R,ugm-3,34.88493,R,ugm-3
06-01-2020,15:00,14.493,R,ugm-3 (Ref.eq),7.72172,R,ugm-3,25.47415,R,ugm-3,37.31395,R,ugm-3
06-01-2020,16:00,19.324,R,ugm-3 (Ref.eq),17.34000,R,ugm-3,34.39640,R,ugm-3,60.98402,R,ugm-3
06-01-2020,17:00,16.425,R,ugm-3 (Ref.eq),6.97664,R,ugm-3,18.55429,R,ugm-3,29.25166,R,ugm-3
06-01-2020,18:00,16.425,R,ugm-3 (Ref.eq),11.31164,R,ugm-3,22.34703,R,ugm-3,39.69129,R,ugm-3
06-01-2020,19:00,21.256,R,ugm-3 (Ref.eq),7.95879,R,ugm-3,27.48799,R,ugm-3,39.69129,R,ugm-3
06-01-2020,20:00,17.392,R,ugm-3 (Ref.eq),6.90890,R,ugm-3,21.29390,R,ugm-3,31.88741,R,ugm-3
06-01-2020,21:00,21.256,R,ugm-3 (Ref.eq),3.01418,R,ugm-3,16.36096,R,ugm-3,20.98264,R,ugm-3
06-01-2020,22:00,16.425,R,ugm-3 (Ref.eq),3.65766,R,ugm-3,16.25289,R,ugm-3,21.86122,R,ugm-3
06-01-2020,23:00,21.256,R,ugm-3 (Ref.eq),3.82699,R,ugm-3,21.16139,R,ugm-3,27.02936,R,ugm-3
06-01-2020,24:00,16.425,R,ugm-3 (Ref.eq),3.92859,R,ugm-3,31.03179,R,ugm-3,37.05554,R,ugm-3
07-01-2020,01:00,18.358,R,ugm-3 (Ref.eq),2.43830,R,ugm-3,32.60207,R,ugm-3,36.34074,R,ugm-3
07-01-2020,02:00,21.256,R,ugm-3 (Ref.eq),0.45154,R,ugm-3,21.60765,R,ugm-3,22.30000,R,ugm-3
07-01-2020,03:00,15.459,R,ugm-3 (Ref.eq),4.02997,R,ugm-3,23.81224,R,ugm-3,29.99143,R,ugm-3
07-01-2020,04:00,16.425,R,ugm-3 (Ref.eq),3.52199,R,ugm-3,19.17099,R,ugm-3,24.57130,R,ugm-3
07-01-2020,05:00,20.290,R,ugm-3 (Ref.eq),2.81082,R,ugm-3,16.08019,R,ugm-3,20.39004,R,ugm-3
07-01-2020,06:00,20.290,R,ugm-3 (Ref.eq),5.99415,R,ugm-3,22.55562,R,ugm-3,31.74653,R,ugm-3
07-01-2020,07:00,16.425,R,ugm-3 (Ref.eq),9.85479,R,ugm-3,33.41268,R,ugm-3,48.52315,R,ugm-3
07-01-2020,08:00,20.290,R,ugm-3 (Ref.eq),3.99610,R,ugm-3,27.73569,R,ugm-3,33.86296,R,ugm-3
07-01-2020,09:00,19.324,R,ugm-3 (Ref.eq),2.91241,R,ugm-3,34.66260,R,ugm-3,39.12824,R,ugm-3
07-01-2020,10:00,22.223,R,ugm-3 (Ref.eq),3.86064,R,ugm-3,30.42117,R,ugm-3,36.34074,R,ugm-3
07-01-2020,11:00,21.256,R,ugm-3 (Ref.eq),4.60568,R,ugm-3,26.54292,R,ugm-3,33.60486,R,ugm-3
07-01-2020,12:00,23.189,R,ugm-3 (Ref.eq),11.34486,R,ugm-3,33.60571,R,ugm-3,51.00092,R,ugm-3
07-01-2020,13:00,19.324,R,ugm-3 (Ref.eq),6.06188,R,ugm-3,23.63904,R,ugm-3,32.93380,R,ugm-3
07-01-2020,14:00,15.459,R,ugm-3 (Ref.eq),3.25107,R,ugm-3,19.37992,R,ugm-3,24.36481,R,ugm-3
07-01-2020,15:00,11.594,R,ugm-3 (Ref.eq),8.77110,R,ugm-3,26.04074,R,ugm-3,39.48958,R,ugm-3
07-01-2020,16:00,15.459,R,ugm-3 (Ref.eq),11.75125,R,ugm-3,30.71130,R,ugm-3,48.72963,R,ugm-3
07-01-2020,17:00,12.561,R,ugm-3 (Ref.eq),12.46242,R,ugm-3,35.40233,R,ugm-3,54.51111,R,ugm-3
07-01-2020,18:00,8.696,R,ugm-3 (Ref.eq),12.83494,R,ugm-3,34.57305,R,ugm-3,54.25301,R,ugm-3
07-01-2020,19:00,4.831,R,ugm-3 (Ref.eq),7.17944,R,ugm-3,25.22918,R,ugm-3,36.23750,R,ugm-3
07-01-2020,20:00,5.797,R,ugm-3 (Ref.eq),6.60373,R,ugm-3,15.89109,R,ugm-3,26.01667,R,ugm-3
07-01-2020,21:00,1.932,R,ugm-3 (Ref.eq),4.74114,R,ugm-3,11.26207,R,ugm-3,18.53171,R,ugm-3
07-01-2020,22:00,-0.966,R,ugm-3 (Ref.eq),4.02997,R,ugm-3,10.90715,R,ugm-3,17.08634,R,ugm-3
07-01-2020,23:00,2.899,R,ugm-3 (Ref.eq),3.58972,R,ugm-3,14.47292,R,ugm-3,19.97708,R,ugm-3
07-01-2020,24:00,5.797,R,ugm-3 (Ref.eq),1.76099,R,ugm-3,9.94684,R,ugm-3,12.64699,R,ugm-3
08-01-2020,01:00,12.561,R,ugm-3 (Ref.eq),1.62544,R,ugm-3,7.26960,R,ugm-3,9.76191,R,ugm-3
08-01-2020,02:00,17.392,R,ugm-3 (Ref.eq),0.58696,R,ugm-3,4.11844,R,ugm-3,5.01844,R,ugm-3
08-01-2020,03:00,28.020,R,ugm-3 (Ref.eq),0.44022,R,ugm-3,2.77948,R,ugm-3,3.45448,R,ugm-3
08-01-2020,04:00,29.952,R,ugm-3 (Ref.eq),0.81272,R,ugm-3,4.06446,R,ugm-3,5.31062,R,ugm-3
08-01-2020,05:00,28.986,R,ugm-3 (Ref.eq),1.11749,R,ugm-3,2.87532,R,ugm-3,4.58878,R,ugm-3
08-01-2020,06:00,28.020,R,ugm-3 (Ref.eq),1.99794,R,ugm-3,6.16567,R,ugm-3,9.22913,R,ugm-3
08-01-2020,07:00,26.087,R,ugm-3 (Ref.eq),5.31655,R,ugm-3,12.00779,R,ugm-3,20.15971,R,ugm-3
08-01-2020,08:00,26.087,R,ugm-3 (Ref.eq),11.10718,R,ugm-3,29.37266,R,ugm-3,46.40342,R,ugm-3
08-01-2020,09:00,23.189,R,ugm-3 (Ref.eq),14.35806,R,ugm-3,31.03920,R,ugm-3,53.05458,R,ugm-3
08-01-2020,10:00,32.851,R,ugm-3 (Ref.eq),,,,,,,,,
08-01-2020,11:00,,,,,,,,,,,,
08-01-2020,12:00,,,,,,,,,,,,
08-01-2020,13:00,,,,9.48174,R,ugm-3,22.03431,R,ugm-3,36.57277,R,ugm-3
08-01-2020,14:00,,,,8.83833,R,ugm-3,25.63319,R,ugm-3,39.18511,R,ugm-3
08-01-2020,15:00,,,,18.99734,R,ugm-3,42.48711,R,ugm-3,71.61595,R,ugm-3
08-01-2020,16:00,,,,39.21376,R,ugm-3,63.71866,R,ugm-3,123.84558,R,ugm-3
08-01-2020,17:00,,,,57.39838,R,ugm-3,86.57038,R,ugm-3,174.57999,R,ugm-3
08-01-2020,18:00,,,,58.31269,R,ugm-3,84.44663,R,ugm-3,173.85816,R,ugm-3
08-01-2020,19:00,,,,51.60774,R,ugm-3,82.14691,R,ugm-3,161.27768,R,ugm-3
08-01-2020,20:00,,,,34.87925,R,ugm-3,71.96315,R,ugm-3,125.44392,R,ugm-3
08-01-2020,21:00,,,,8.12720,R,ugm-3,62.29954,R,ugm-3,74.76107,R,ugm-3
08-01-2020,22:00,,,,6.29858,R,ugm-3,56.33829,R,ugm-3,65.99598,R,ugm-3
08-01-2020,23:00,,,,1.21908,R,ugm-3,40.35789,R,ugm-3,42.22712,R,ugm-3
08-01-2020,24:00,,,,0.30477,R,ugm-3,14.38179,R,ugm-3,14.84910,R,ugm-3
09-01-2020,01:00,,,,0.58666,R,ugm-3,6.65794,R,ugm-3,7.55748,R,ugm-3
09-01-2020,02:00,,,,0.27077,R,ugm-3,4.25672,R,ugm-3,4.67190,R,ugm-3
09-01-2020,03:00,,,,0.40615,R,ugm-3,4.16937,R,ugm-3,4.79213,R,ugm-3
09-01-2020,04:00,,,,0.40615,R,ugm-3,5.86980,R,ugm-3,6.49256,R,ugm-3
09-01-2020,05:00,,,,1.72614,R,ugm-3,10.33841,R,ugm-3,12.98512,R,ugm-3
09-01-2020,06:00,,,,1.25230,R,ugm-3,21.47366,R,ugm-3,23.39382,R,ugm-3
09-01-2020,07:00,,,,15.56911,R,ugm-3,34.81837,R,ugm-3,58.69067,R,ugm-3
09-01-2020,08:00,,,,18.27679,R,ugm-3,35.61337,R,ugm-3,63.63739,R,ugm-3
09-01-2020,09:00,,,,13.74144,R,ugm-3,33.96226,R,ugm-3,55.03217,R,ugm-3
09-01-2020,10:00,,,,14.14759,R,ugm-3,21.53954,R,ugm-3,43.23220,R,ugm-3
09-01-2020,11:00,,,,6.76918,R,ugm-3,14.97263,R,ugm-3,25.35190,R,ugm-3
09-01-2020,12:00,,,,12.75990,R,ugm-3,20.11184,R,ugm-3,39.67675,R,ugm-3
09-01-2020,13:00,,,,9.44301,R,ugm-3,17.57150,R,ugm-3,32.05057,R,ugm-3
09-01-2020,14:00,,,,11.91376,R,ugm-3,23.77955,R,ugm-3,42.04705,R,ugm-3
09-01-2020,15:00,,,,13.74144,R,ugm-3,25.71774,R,ugm-3,46.78765,R,ugm-3
09-01-2020,16:00,,,,18.37832,R,ugm-3,37.41576,R,ugm-3,65.59546,R,ugm-3
09-01-2020,17:00,,,,16.65218,R,ugm-3,44.70001,R,ugm-3,70.23300,R,ugm-3
09-01-2020,18:00,,,,20.30754,R,ugm-3,49.29780,R,ugm-3,80.43559,R,ugm-3
09-01-2020,19:00,,,,27.68595,R,ugm-3,49.21756,R,ugm-3,91.66875,R,ugm-3
09-01-2020,20:00,,,,22.43983,R,ugm-3,44.89471,R,ugm-3,79.30197,R,ugm-3
09-01-2020,21:00,,,,9.67993,R,ugm-3,31.37849,R,ugm-3,46.22084,R,ugm-3
09-01-2020,22:00,,,,6.05842,R,ugm-3,22.40043,R,ugm-3,31.68987,R,ugm-3
09-01-2020,23:00,,,,4.02766,R,ugm-3,15.67231,R,ugm-3,21.84798,R,ugm-3
09-01-2020,24:00,,,,3.24921,R,ugm-3,8.20918,R,ugm-3,13.19123,R,ugm-3
10-01-2020,01:00,,,,3.69858,R,ugm-3,9.91539,R,ugm-3,15.58647,R,ugm-3
10-01-2020,02:00,,,,1.44335,R,ugm-3,7.74301,R,ugm-3,9.95611,R,ugm-3
10-01-2020,03:00,,,,1.79291,R,ugm-3,12.75155,R,ugm-3,15.50064,R,ugm-3
10-01-2020,04:00,,,,1.08251,R,ugm-3,7.30068,R,ugm-3,8.96050,R,ugm-3
10-01-2020,05:00,,,,1.72525,R,ugm-3,12.28882,R,ugm-3,14.93417,R,ugm-3
10-01-2020,06:00,,,,9.23517,R,ugm-3,26.36785,R,ugm-3,40.52825,R,ugm-3
10-01-2020,07:00,,,,47.12303,R,ugm-3,55.97355,R,ugm-3,128.22786,R,ugm-3
10-01-2020,08:00,,,,108.14956,R,ugm-3,84.50056,R,ugm-3,250.32757,R,ugm-3
10-01-2020,09:00,,,,180.77924,R,ugm-3,88.07820,R,ugm-3,365.26917,R,ugm-3
10-01-2020,10:00,,,,171.27345,R,ugm-3,79.11936,R,ugm-3,341.73498,R,ugm-3
10-01-2020,11:00,,,,177.70085,R,ugm-3,83.32286,R,ugm-3,355.79370,R,ugm-3
10-01-2020,12:00,,,,95.29475,R,ugm-3,76.50554,R,ugm-3,222.62211,R,ugm-3
10-01-2020,13:00,,,,103.31209,R,ugm-3,78.01368,R,ugm-3,236.42334,R,ugm-3
10-01-2020,14:00,,,,75.74190,R,ugm-3,68.94474,R,ugm-3,185.08070,R,ugm-3
10-01-2020,15:00,,,,26.55533,R,ugm-3,46.87901,R,ugm-3,87.59663,R,ugm-3
10-01-2020,16:00,,,,33.18571,R,ugm-3,62.87312,R,ugm-3,113.75717,R,ugm-3
10-01-2020,17:00,,,,44.68738,R,ugm-3,70.47107,R,ugm-3,138.99077,R,ugm-3
10-01-2020,18:00,,,,33.59165,R,ugm-3,64.00159,R,ugm-3,115.50807,R,ugm-3
10-01-2020,19:00,,,,6.39358,R,ugm-3,40.66384,R,ugm-3,50.46719,R,ugm-3
10-01-2020,20:00,,,,13.56521,R,ugm-3,36.31063,R,ugm-3,57.11032,R,ugm-3
10-01-2020,21:00,,,,9.67494,R,ugm-3,32.07919,R,ugm-3,46.91389,R,ugm-3
10-01-2020,22:00,,,,2.16502,R,ugm-3,14.24087,R,ugm-3,17.56052,R,ugm-3
10-01-2020,23:00,,,,1.08251,R,ugm-3,12.29590,R,ugm-3,13.95572,R,ugm-3
10-01-2020,24:00,,,,0.81188,R,ugm-3,9.00306,R,ugm-3,10.24793,R,ugm-3
11-01-2020,01:00,,,,0.72130,R,ugm-3,7.19720,R,ugm-3,8.30319,R,ugm-3
11-01-2020,02:00,,,,0.67622,R,ugm-3,4.17837,R,ugm-3,5.21522,R,ugm-3
11-01-2020,03:00,,,,0.57479,R,ugm-3,4.31674,R,ugm-3,5.19807,R,ugm-3
11-01-2020,04:00,,,,1.85961,R,ugm-3,4.04509,R,ugm-3,6.89645,R,ugm-3
11-01-2020,05:00,,,,0.60860,R,ugm-3,3.64731,R,ugm-3,4.58048,R,ugm-3
11-01-2020,06:00,,,,1.31863,R,ugm-3,5.69803,R,ugm-3,7.71990,R,ugm-3
11-01-2020,07:00,,,,2.23153,R,ugm-3,9.23902,R,ugm-3,12.66064,R,ugm-3
11-01-2020,08:00,,,,2.80631,R,ugm-3,11.49711,R,ugm-3,15.80007,R,ugm-3
11-01-2020,09:00,,,,8.85848,R,ugm-3,18.94371,R,ugm-3,32.52653,R,ugm-3
11-01-2020,10:00,,,,11.42812,R,ugm-3,18.50334,R,ugm-3,36.02621,R,ugm-3
11-01-2020,11:00,,,,9.60233,R,ugm-3,23.31003,R,ugm-3,38.03339,R,ugm-3
11-01-2020,12:00,,,,9.02754,R,ugm-3,23.67670,R,ugm-3,37.51873,R,ugm-3
11-01-2020,13:00,,,,10.71809,R,ugm-3,22.06241,R,ugm-3,38.49658,R,ugm-3
11-01-2020,14:00,,,,10.04187,R,ugm-3,22.53314,R,ugm-3,37.93046,R,ugm-3
11-01-2020,15:00,,,,13.32154,R,ugm-3,23.73178,R,ugm-3,44.15785,R,ugm-3
11-01-2020,16:00,,,,9.73757,R,ugm-3,21.09549,R,ugm-3,36.02621,R,ugm-3
11-01-2020,17:00,,,,8.35132,R,ugm-3,22.03732,R,ugm-3,34.84250,R,ugm-3
11-01-2020,18:00,,,,10.61666,R,ugm-3,27.15868,R,ugm-3,43.43732,R,ugm-3
11-01-2020,19:00,,,,4.97022,R,ugm-3,13.89190,R,ugm-3,21.51280,R,ugm-3
11-01-2020,20:00,,,,7.74272,R,ugm-3,22.61023,R,ugm-3,34.48223,R,ugm-3
11-01-2020,21:00,,,,8.95992,R,ugm-3,33.50746,R,ugm-3,47.24581,R,ugm-3
11-01-2020,22:00,,,,6.99888,R,ugm-3,32.60293,R,ugm-3,43.33439,R,ugm-3
11-01-2020,23:00,,,,6.18741,R,ugm-3,37.55271,R,ugm-3,47.03994,R,ugm-3
11-01-2020,24:00,,,,3.88827,R,ugm-3,27.38806,R,ugm-3,33.34998,R,ugm-3
12-01-2020,01:00,,,,2.92878,R,ugm-3,25.68442,R,ugm-3,30.17515,R,ugm-3
12-01-2020,02:00,,,,4.55087,R,ugm-3,27.92926,R,ugm-3,34.90716,R,ugm-3
12-01-2020,03:00,,,,1.41933,R,ugm-3,17.62616,R,ugm-3,19.80244,R,ugm-3
12-01-2020,04:00,,,,0.91243,R,ugm-3,15.62592,R,ugm-3,17.02496,R,ugm-3
12-01-2020,05:00,,,,1.11519,R,ugm-3,15.57220,R,ugm-3,17.28213,R,ugm-3
12-01-2020,06:00,,,,2.09520,R,ugm-3,17.92715,R,ugm-3,21.13975,R,ugm-3
12-01-2020,07:00,,,,2.73728,R,ugm-3,15.96538,R,ugm-3,20.16248,R,ugm-3
12-01-2020,08:00,,,,3.95385,R,ugm-3,17.03180,R,ugm-3,23.09427,R,ugm-3
12-01-2020,09:00,,,,3.17659,R,ugm-3,13.44012,R,ugm-3,18.31083,R,ugm-3
12-01-2020,10:00,,,,4.39316,R,ugm-3,11.16326,R,ugm-3,17.89935,R,ugm-3
12-01-2020,11:00,,,,4.79869,R,ugm-3,13.52469,R,ugm-3,20.88257,R,ugm-3
12-01-2020,12:00,,,,7.94149,R,ugm-3,23.82766,R,ugm-3,36.00444,R,ugm-3
12-01-2020,13:00,,,,6.96147,R,ugm-3,19.98110,R,ugm-3,30.65520,R,ugm-3
12-01-2020,14:00,,,,7.80631,R,ugm-3,14.93095,R,ugm-3,26.90046,R,ugm-3
12-01-2020,15:00,,,,6.15043,R,ugm-3,16.69841,R,ugm-3,26.12893,R,ugm-3
12-01-2020,16:00,,,,7.33320,R,ugm-3,22.39434,R,ugm-3,33.63843,R,ugm-3
12-01-2020,17:00,,,,15.40986,R,ugm-3,35.21341,R,ugm-3,58.84154,R,ugm-3
12-01-2020,18:00,,,,15.40986,R,ugm-3,39.22534,R,ugm-3,62.85346,R,ugm-3
12-01-2020,19:00,,,,23.04720,R,ugm-3,57.70720,R,ugm-3,93.04575,R,ugm-3
12-01-2020,20:00,,,,2.87245,R,ugm-3,51.86542,R,ugm-3,56.26979,R,ugm-3
12-01-2020,21:00,,,,2.09520,R,ugm-3,33.61480,R,ugm-3,36.82740,R,ugm-3
12-01-2020,22:00,,,,1.38554,R,ugm-3,24.51882,R,ugm-3,26.64328,R,ugm-3